Weather in Radul

Ukraine / Chernihiv Region     51°49′45″N   30°42′46″E
В апреле 2022 года жителям России запретили посещать сайт meteo.paraplan.net по решению Генеральной прокуратуры. Аудитория сайта уменьшилась в 10 раз. Владельцы сайта не видят смысла в поддержке погодного сервера в таких условиях. Сайт будет закрыт в октябре.
temp.,
°C
wind,
m/s
gust,
m/s
humid.,
%
clouds,
%
prec.,
mm/h
press.,
hPa
HPBL,
m
4 october, tue
tue400:00+5wsw61096100 1.3 1000912
03:00+5wsw6994100 1.7 1001914
06:00+5wsw5892100 0.6 1003930
09:00+6wsw5994100 1.4 10051028
12:00+7wsw5894100 0.8 10061135
15:00+8wsw61093100 1.5 10081025
18:00+8wsw61193100 0.8 1011818
21:00+8w51193100 1.3 1012620
5 october, wed
wed500:00+9wnw61385100 0.3 10141060
03:00+7w6139336 0.4 1016533
06:00+7w6129583 0.0 1018517
09:00+8wnw6108797 0.0 1020700
12:00+9w5988100 0.0 1021731
15:00+11w587857 0.1 1021918
18:00+10wsw3887100 0.1 1022283
21:00+9sw3989100 0.1 1022221
6 october, thu
thu600:00+9sw3892100 0.0 1022185
03:00+9sw3793100 0.0 1022143
06:00+9sw378998 0.0 1022175
09:00+10wsw378580 0.0 1022215
12:00+15wsw46675 0.0 1022550
15:00+17wsw56605 0.0 1021819
18:00+14wsw35785 0.0 102180
21:00+11wsw398863 0.0 1022166
7 october, fri
fri700:00+10w3109390 0.0 1024197
03:00+11wnw4119568 0.0 1025322
06:00+9nw410955 0.0 1027284
09:00+10nw48890 0.0 1028305
12:00+14nw45670 0.0 1029646
15:00+16nw34570 0.0 1028873
18:00+12nw22740 0.0 102814
21:00+10nnw11840 0.0 102810
8 october, sat
sat800:00+9ese11861 0.0 102810
03:00+8sse22893 0.0 102712
06:00+7sse22913 0.0 102629
09:00+9s358513 0.0 1025160
12:00+14s45655 0.0 1024626
15:00+16s46545 0.0 1021910
18:00+12s367267 0.0 102083
21:00+10s3776100 0.0 1021104